| time (UTC) | temp F | wind direction | speed knots | gust knots | rain 1hr in | rain 24hr in | rain mn in | humidity % | barometer mb |
| 20260507044540 | 51 | 246 | 0.0 | 0.0 | 0.00 | 0.08 | 0.00 | 92 | 1011.1 |
| 20260507043538 | 50 | 258 | 0.0 | 0.0 | 0.00 | 0.08 | 0.00 | 92 | 1011.0 |
| 20260507043053 | 50 | 258 | 0.0 | 0.9 | 0.00 | 0.08 | 0.00 | 92 | 1011.0 |
| 20260507042538 | 51 | 259 | 0.0 | 0.9 | 0.00 | 0.08 | 0.00 | 92 | 1011.1 |
| 20260507042038 | 51 | 275 | 0.0 | 0.0 | 0.00 | 0.08 | 0.00 | 92 | 1011.1 |
| 20260507041540 | 51 | 273 | 0.0 | 0.0 | 0.00 | 0.09 | 0.00 | 92 | 1011.0 |
| 20260507041039 | 51 | 273 | 0.0 | 1.7 | 0.00 | 0.09 | 0.00 | 92 | 1011.0 |
| 20260507040539 | 51 | 263 | 1.7 | 2.6 | 0.00 | 0.11 | 0.00 | 94 | 1011.0 |
| 20260507040040 | 51 | 249 | 0.0 | 0.0 | 0.00 | 0.11 | 0.00 | 94 | 1011.0 |
| 20260507035542 | 51 | 254 | 0.9 | 1.7 | 0.00 | 0.11 | 0.00 | 95 | 1010.9 |
| 20260507035038 | 51 | 258 | 0.9 | 2.6 | 0.00 | 0.11 | 0.00 | 95 | 1010.9 |
| 20260507034538 | 51 | 228 | 0.9 | 2.6 | 0.00 | 0.11 | 0.00 | 95 | 1010.8 |
| 20260507034038 | 50 | 252 | 0.9 | 1.7 | 0.00 | 0.11 | 0.00 | 95 | 1010.8 |
| 20260507033538 | 50 | 232 | 0.9 | 0.9 | 0.00 | 0.11 | 0.00 | 96 | 1010.8 |
| 20260507033038 | 50 | 231 | 0.0 | 0.9 | 0.00 | 0.11 | 0.00 | 96 | 1010.7 |
| 20260507032538 | 51 | 237 | 0.9 | 2.6 | 0.00 | 0.11 | 0.00 | 96 | 1010.6 |
| 20260507032038 | 50 | 221 | 1.7 | 2.6 | 0.00 | 0.11 | 0.00 | 96 | 1010.6 |
| 20260507031538 | 51 | 84 | 0.0 | 0.0 | 0.00 | 0.11 | 0.00 | 96 | 1010.6 |
| 20260507031038 | 51 | 84 | 0.0 | 0.0 | 0.00 | 0.11 | 0.00 | 96 | 1010.6 |
| 20260507030539 | 51 | 84 | 0.0 | 0.0 | 0.00 | 0.11 | 0.00 | 96 | 1010.7 |
| 20260507030038 | 51 | 84 | 0.0 | 0.0 | 0.00 | 0.11 | 0.00 | 95 | 1010.7 |
| 20260507025538 | 51 | 84 | 0.0 | 0.0 | 0.00 | 0.11 | 0.00 | 96 | 1010.7 |
| 20260507025038 | 51 | 84 | 0.0 | 0.0 | 0.00 | 0.11 | 0.00 | 95 | 1010.6 |
| 20260507024538 | 51 | 84 | 0.0 | 1.7 | 0.00 | 0.11 | 0.00 | 96 | 1010.6 |
| 20260507024045 | 52 | 232 | 0.0 | 0.0 | 0.00 | 0.11 | 0.00 | 96 | 1010.6 |
| 20260507023540 | 52 | 232 | 0.0 | 0.0 | 0.00 | 0.11 | 0.00 | 96 | 1010.6 |
| 20260507023056 | 52 | 232 | 0.0 | 2.6 | 0.00 | 0.11 | 0.00 | 96 | 1010.6 |
| 20260507022545 | 52 | 173 | 0.0 | 1.7 | 0.00 | 0.11 | 0.00 | 96 | 1010.6 |
| 20260507022038 | 52 | 77 | 0.0 | 0.0 | 0.00 | 0.11 | 0.00 | 96 | 1010.6 |
| 20260507021539 | 52 | 77 | 0.0 | 0.0 | 0.00 | 0.11 | 0.00 | 96 | 1010.7 |
| 20260507021038 | 52 | 77 | 0.0 | 0.0 | 0.00 | 0.11 | 0.00 | 96 | 1010.7 |
| 20260507020539 | 52 | 77 | 0.0 | 0.0 | 0.00 | 0.11 | 0.00 | 96 | 1010.7 |
| 20260507020038 | 52 | 77 | 0.0 | 0.0 | 0.00 | 0.11 | 0.00 | 95 | 1010.7 |
| 20260507015543 | 52 | 77 | 0.0 | 0.0 | 0.00 | 0.11 | 0.00 | 95 | 1010.6 |
| 20260507015045 | 52 | 77 | 0.0 | 0.0 | 0.00 | 0.11 | 0.00 | 95 | 1010.6 |
| 20260507014537 | 52 | 77 | 0.0 | 0.9 | 0.00 | 0.11 | 0.00 | 95 | 1010.6 |
| 20260507014039 | 52 | 77 | 0.0 | 1.7 | 0.00 | 0.11 | 0.00 | 95 | 1010.6 |
| 20260507013538 | 52 | 77 | 1.7 | 2.6 | 0.00 | 0.11 | 0.00 | 95 | 1010.6 |
| 20260507013038 | 52 | 77 | 1.7 | 4.3 | 0.00 | 0.11 | 0.00 | 94 | 1010.5 |
| 20260507012538 | 52 | 87 | 1.7 | 4.3 | 0.00 | 0.11 | 0.00 | 94 | 1010.5 |
| 20260507011538 | 52 | 277 | 0.0 | 0.0 | 0.00 | 0.11 | 0.00 | 94 | 1010.5 |
| 20260507011038 | 53 | 277 | 0.0 | 0.0 | 0.00 | 0.11 | 0.00 | 94 | 1010.5 |
| 20260507005538 | 53 | 277 | 0.9 | 1.7 | 0.00 | 0.11 | 0.00 | 93 | 1010.4 |
| 20260507005038 | 54 | 17 | 0.0 | 0.0 | 0.00 | 0.11 | 0.00 | 94 | 1010.5 |
| 20260507004538 | 54 | 17 | 0.9 | 1.7 | 0.00 | 0.11 | 0.00 | 94 | 1010.4 |
| 20260507004040 | 54 | 5 | 0.0 | 0.0 | 0.00 | 0.11 | 0.00 | 94 | 1010.4 |
| 20260507003038 | 54 | 143 | 0.0 | 0.0 | 0.00 | 0.11 | 0.00 | 93 | 1010.3 |
| 20260507002538 | 54 | 143 | 0.0 | 0.0 | 0.00 | 0.11 | 0.00 | 93 | 1010.3 |
| 20260507002038 | 54 | 54 | 0.0 | 0.0 | 0.00 | 0.11 | 0.00 | 93 | 1010.3 |
| 20260507001556 | 54 | 54 | 0.9 | 1.7 | 0.00 | 0.11 | 0.00 | 93 | 1010.3 |
| 20260507001038 | 54 | 54 | 0.0 | 2.6 | 0.00 | 0.11 | 0.00 | 92 | 1010.3 |
| 20260507000538 | 54 | 72 | 0.9 | 2.6 | 0.00 | 0.11 | 0.00 | 91 | 1010.4 |
| 20260507000039 | 54 | 72 | 0.9 | 2.6 | 0.00 | 0.11 | 0.00 | 91 | 1010.4 |
| 20260506235537 | 55 | 88 | 1.7 | 4.3 | 0.00 | 0.11 | 0.00 | 90 | 1010.3 |
| 20260506235039 | 55 | 184 | 0.0 | 2.6 | 0.00 | 0.11 | 0.00 | 90 | 1010.3 |
| 20260506234538 | 56 | 210 | 0.0 | 1.7 | 0.00 | 0.11 | 0.00 | 90 | 1010.3 |
| 20260506234040 | 56 | 210 | 0.9 | 2.6 | 0.00 | 0.11 | 0.00 | 90 | 1010.2 |
| 20260506233038 | 57 | 271 | 0.9 | 2.6 | 0.00 | 0.11 | 0.00 | 90 | 1010.3 |
| 20260506232537 | 57 | 268 | 1.7 | 2.6 | 0.00 | 0.11 | 0.00 | 93 | 1010.3 |
| 20260506232037 | 56 | 325 | 0.0 | 0.9 | 0.00 | 0.11 | 0.00 | 95 | 1010.3 |
| 20260506231537 | 56 | 23 | 2.6 | 7.0 | 0.00 | 0.11 | 0.00 | 96 | 1010.3 |
| 20260506231038 | 57 | 131 | 0.9 | 4.3 | 0.00 | 0.11 | 0.00 | 96 | 1010.3 |
| 20260506230538 | 57 | 89 | 1.7 | 4.3 | 0.00 | 0.11 | 0.00 | 96 | 1010.3 |
| 20260506230038 | 57 | 117 | 0.9 | 2.6 | 0.00 | 0.11 | 0.00 | 96 | 1010.3 |
| 20260506225537 | 57 | 55 | 0.0 | 2.6 | 0.00 | 0.11 | 0.00 | 96 | 1010.2 |
| 20260506225038 | 57 | 34 | 0.9 | 2.6 | 0.00 | 0.11 | 0.00 | 96 | 1010.2 |
| 20260506224037 | 57 | 59 | 1.7 | 2.6 | 0.00 | 0.11 | 0.00 | 96 | 1010.2 |
| 20260506223037 | 57 | 95 | 0.9 | 2.6 | 0.00 | 0.11 | 0.00 | 96 | 1010.3 |
| 20260506222540 | 57 | 95 | 0.0 | 2.6 | 0.00 | 0.11 | 0.00 | 96 | 1010.3 |
| 20260506222044 | 57 | 95 | 0.9 | 4.3 | 0.00 | 0.11 | 0.00 | 96 | 1010.2 |
| 20260506221038 | 57 | 67 | 2.6 | 4.3 | 0.00 | 0.11 | 0.00 | 95 | 1010.2 |
| 20260506220037 | 57 | 101 | 1.7 | 2.6 | 0.00 | 0.11 | 0.11 | 94 | 1010.3 |
| 20260506215537 | 58 | 101 | 0.0 | 2.6 | 0.00 | 0.11 | 0.11 | 94 | 1010.3 |
| 20260506215038 | 58 | 121 | 1.7 | 2.6 | 0.00 | 0.11 | 0.11 | 94 | 1010.3 |
| 20260506214540 | 58 | 217 | 0.0 | 1.7 | 0.00 | 0.11 | 0.11 | 94 | 1010.1 |
| 20260506214054 | 59 | 214 | 0.0 | 0.9 | 0.00 | 0.11 | 0.11 | 94 | 1010.1 |
| 20260506213537 | 59 | 287 | 0.9 | 2.6 | 0.00 | 0.11 | 0.11 | 93 | 1010.2 |
| 20260506213037 | 59 | 285 | 0.0 | 1.7 | 0.00 | 0.11 | 0.11 | 94 | 1010.2 |
| 20260506212540 | 59 | 289 | 0.0 | 1.7 | 0.00 | 0.11 | 0.11 | 95 | 1010.1 |
| 20260506212038 | 58 | 190 | 1.7 | 2.6 | 0.00 | 0.11 | 0.11 | 96 | 1010.2 |
| 20260506211536 | 59 | 355 | 0.9 | 2.6 | 0.00 | 0.11 | 0.11 | 96 | 1010.2 |
| 20260506211037 | 59 | 67 | 1.7 | 2.6 | 0.00 | 0.11 | 0.11 | 96 | 1010.3 |
| 20260506210537 | 59 | 67 | 1.7 | 2.6 | 0.00 | 0.11 | 0.11 | 96 | 1010.2 |
| 20260506210037 | 59 | 67 | 0.9 | 1.7 | 0.00 | 0.11 | 0.11 | 96 | 1010.2 |
| 20260506205548 | 59 | 67 | 0.9 | 1.7 | 0.00 | 0.11 | 0.11 | 96 | 1010.2 |
| 20260506205037 | 59 | 68 | 2.6 | 2.6 | 0.00 | 0.11 | 0.11 | 96 | 1010.2 |
| 20260506204537 | 59 | 204 | 0.9 | 1.7 | 0.00 | 0.11 | 0.11 | 95 | 1010.1 |
| 20260506204040 | 59 | 204 | 0.0 | 0.9 | 0.00 | 0.11 | 0.11 | 95 | 1010.1 |
| 20260506203540 | 60 | 204 | 0.0 | 1.7 | 0.00 | 0.11 | 0.11 | 95 | 1010.0 |
| 20260506203042 | 60 | 204 | 1.7 | 2.6 | 0.00 | 0.11 | 0.11 | 95 | 1010.0 |
| 20260506202537 | 60 | 323 | 0.9 | 1.7 | 0.00 | 0.11 | 0.11 | 95 | 1009.9 |
| 20260506202037 | 60 | 323 | 0.9 | 2.6 | 0.00 | 0.11 | 0.11 | 94 | 1009.9 |
| 20260506201537 | 60 | 276 | 1.7 | 2.6 | 0.00 | 0.11 | 0.11 | 94 | 1009.9 |
| 20260506200037 | 61 | 355 | 1.7 | 2.6 | 0.00 | 0.11 | 0.11 | 94 | 1009.7 |
| 20260506195536 | 61 | 5 | 0.9 | 1.7 | 0.00 | 0.11 | 0.11 | 93 | 1009.7 |
| 20260506195038 | 61 | 79 | 2.6 | 6.1 | 0.00 | 0.11 | 0.11 | 93 | 1009.4 |
| 20260506193537 | 61 | 73 | 1.7 | 4.3 | 0.00 | 0.11 | 0.11 | 93 | 1009.3 |
| 20260506193037 | 61 | 80 | 2.6 | 4.3 | 0.00 | 0.11 | 0.11 | 93 | 1009.2 |
| 20260506190037 | 62 | 86 | 7.0 | 8.7 | 0.00 | 0.11 | 0.11 | 92 | 1008.6 |
| 20260506185539 | 62 | 91 | 7.8 | 10.4 | 0.00 | 0.11 | 0.11 | 92 | 1008.5 |
| 20260506185037 | 62 | 82 | 6.1 | 11.3 | 0.00 | 0.11 | 0.11 | 92 | 1008.5 |
| 20260506184537 | 63 | 109 | 3.5 | 4.3 | 0.00 | 0.11 | 0.11 | 92 | 1008.5 |
| 20260506184053 | 63 | 72 | 2.6 | 2.6 | 0.00 | 0.11 | 0.11 | 91 | 1008.4 |
| 20260506183537 | 63 | 90 | 2.6 | 4.3 | 0.00 | 0.11 | 0.11 | 91 | 1008.3 |
| 20260506183036 | 63 | 69 | 1.7 | 4.3 | 0.00 | 0.11 | 0.11 | 90 | 1008.2 |
| 20260506182537 | 63 | 74 | 0.9 | 5.2 | 0.00 | 0.11 | 0.11 | 90 | 1008.1 |
| 20260506182037 | 63 | 63 | 2.6 | 7.0 | 0.00 | 0.11 | 0.11 | 89 | 1007.9 |
| 20260506181540 | 63 | 90 | 2.6 | 7.0 | 0.00 | 0.11 | 0.11 | 89 | 1007.8 |
| 20260506181037 | 64 | 71 | 4.3 | 6.1 | 0.00 | 0.11 | 0.11 | 89 | 1007.7 |
| 20260506180536 | 64 | 95 | 2.6 | 7.0 | 0.00 | 0.11 | 0.11 | 89 | 1007.7 |
| 20260506180036 | 64 | 85 | 4.3 | 7.8 | 0.00 | 0.11 | 0.11 | 89 | 1007.6 |
| 20260506175537 | 64 | 86 | 7.0 | 11.3 | 0.00 | 0.11 | 0.11 | 89 | 1007.6 |
| 20260506175037 | 65 | 80 | 5.2 | 13.0 | 0.00 | 0.11 | 0.11 | 89 | 1007.6 |
| 20260506174538 | 65 | 65 | 6.1 | 10.4 | 0.00 | 0.11 | 0.11 | 88 | 1007.6 |
| 20260506174038 | 65 | 69 | 5.2 | 7.8 | 0.00 | 0.11 | 0.11 | 87 | 1007.5 |
| 20260506173536 | 65 | 91 | 5.2 | 10.4 | 0.00 | 0.11 | 0.11 | 86 | 1007.4 |
| 20260506173037 | 65 | 75 | 5.2 | 10.4 | 0.00 | 0.11 | 0.11 | 84 | 1007.4 |
| 20260506172537 | 65 | 86 | 4.3 | 7.8 | 0.00 | 0.11 | 0.11 | 82 | 1007.3 |
| 20260506172036 | 66 | 80 | 6.1 | 8.7 | 0.00 | 0.11 | 0.11 | 81 | 1007.3 |
| 20260506171536 | 66 | 76 | 4.3 | 10.4 | 0.00 | 0.11 | 0.11 | 81 | 1007.2 |
| 20260506171036 | 66 | 83 | 5.2 | 7.8 | 0.00 | 0.11 | 0.11 | 80 | 1007.1 |
| 20260506170541 | 66 | 81 | 7.8 | 11.3 | 0.00 | 0.11 | 0.11 | 80 | 1007.1 |
| 20260506170039 | 67 | 83 | 7.8 | 11.3 | 0.00 | 0.11 | 0.11 | 82 | 1007.1 |
| 20260506165038 | 67 | 69 | 5.2 | 10.4 | 0.00 | 0.11 | 0.11 | 85 | 1007.0 |
| 20260506164539 | 67 | 75 | 6.1 | 10.4 | 0.00 | 0.11 | 0.11 | 84 | 1007.0 |
| 20260506164036 | 67 | 87 | 5.2 | 8.7 | 0.00 | 0.11 | 0.11 | 83 | 1007.1 |
| 20260506163036 | 67 | 79 | 8.7 | 11.3 | 0.00 | 0.11 | 0.11 | 82 | 1007.1 |
| 20260506162537 | 68 | 85 | 7.0 | 13.0 | 0.00 | 0.11 | 0.11 | 79 | 1007.1 |
| 20260506162036 | 68 | 95 | 7.0 | 13.0 | 0.00 | 0.11 | 0.11 | 81 | 1007.1 |
| 20260506161536 | 68 | 83 | 8.7 | 12.2 | 0.00 | 0.11 | 0.11 | 80 | 1007.0 |
| 20260506160536 | 68 | 86 | 7.0 | 10.4 | 0.00 | 0.11 | 0.11 | 80 | 1007.1 |
| 20260506160036 | 68 | 77 | 6.1 | 10.4 | 0.00 | 0.11 | 0.11 | 81 | 1007.1 |
| 20260506155539 | 69 | 87 | 7.0 | 11.3 | 0.00 | 0.11 | 0.11 | 82 | 1007.0 |
| 20260506155036 | 69 | 76 | 8.7 | 12.2 | 0.00 | 0.11 | 0.11 | 80 | 1007.0 |
| 20260506154536 | 69 | 82 | 5.2 | 10.4 | 0.00 | 0.11 | 0.11 | 77 | 1007.0 |
| 20260506154036 | 69 | 85 | 5.2 | 11.3 | 0.00 | 0.11 | 0.11 | 80 | 1007.1 |
| 20260506153036 | 70 | 38 | 5.2 | 7.8 | 0.00 | 0.11 | 0.11 | 82 | 1007.0 |
| 20260506151536 | 69 | 45 | 7.8 | 11.3 | 0.00 | 0.11 | 0.11 | 83 | 1007.0 |
| 20260506151036 | 68 | 86 | 8.7 | 10.4 | 0.00 | 0.11 | 0.11 | 83 | 1007.0 |
| 20260506150536 | 68 | 67 | 8.7 | 11.3 | 0.00 | 0.11 | 0.11 | 83 | 1007.1 |
| 20260506145037 | 68 | 64 | 7.0 | 10.4 | 0.00 | 0.11 | 0.11 | 84 | 1007.1 |
| 20260506144551 | 68 | 68 | 6.1 | 10.4 | 0.00 | 0.11 | 0.11 | 84 | 1007.2 |
| 20260506143537 | 68 | 76 | 6.1 | 8.7 | 0.00 | 0.11 | 0.11 | 85 | 1007.4 |
| 20260506143036 | 68 | 50 | 5.2 | 8.7 | 0.00 | 0.11 | 0.11 | 84 | 1007.5 |
| 20260506142536 | 69 | 88 | 7.0 | 13.0 | 0.00 | 0.11 | 0.11 | 83 | 1007.5 |
| 20260506142039 | 70 | 99 | 6.1 | 13.0 | 0.00 | 0.11 | 0.11 | 83 | 1007.4 |
| 20260506141035 | 69 | 65 | 8.7 | 11.3 | 0.00 | 0.11 | 0.11 | 83 | 1007.3 |
| 20260506140535 | 69 | 57 | 6.1 | 10.4 | 0.00 | 0.11 | 0.11 | 85 | 1007.5 |
| 20260506140035 | 68 | 78 | 7.0 | 8.7 | 0.00 | 0.11 | 0.11 | 84 | 1007.7 |
| 20260506135038 | 69 | 68 | 5.2 | 10.4 | 0.00 | 0.11 | 0.11 | 83 | 1007.8 |
| 20260506134536 | 69 | 67 | 5.2 | 7.8 | 0.00 | 0.11 | 0.11 | 83 | 1007.8 |
| 20260506134035 | 69 | 67 | 5.2 | 10.4 | 0.00 | 0.11 | 0.11 | 83 | 1007.9 |
| 20260506133536 | 69 | 50 | 7.8 | 10.4 | 0.00 | 0.11 | 0.11 | 83 | 1007.9 |
| 20260506133037 | 69 | 91 | 6.1 | 10.4 | 0.00 | 0.11 | 0.11 | 84 | 1008.0 |
| 20260506132539 | 69 | 68 | 6.1 | 11.3 | 0.00 | 0.11 | 0.11 | 85 | 1008.1 |
| 20260506132036 | 68 | 61 | 5.2 | 7.0 | 0.00 | 0.11 | 0.11 | 85 | 1008.1 |
| 20260506131536 | 68 | 96 | 6.1 | 8.7 | 0.00 | 0.11 | 0.11 | 83 | 1008.0 |
| 20260506130539 | 67 | 66 | 4.3 | 6.1 | 0.00 | 0.11 | 0.11 | 87 | 1008.2 |
| 20260506130035 | 67 | 39 | 5.2 | 7.8 | 0.00 | 0.11 | 0.11 | 86 | 1008.3 |
| 20260506125536 | 67 | 68 | 3.5 | 8.7 | 0.00 | 0.11 | 0.11 | 87 | 1008.4 |
| 20260506125039 | 66 | 64 | 6.1 | 8.7 | 0.00 | 0.11 | 0.11 | 88 | 1008.4 |
| 20260506124537 | 65 | 74 | 6.1 | 8.7 | 0.00 | 0.11 | 0.11 | 87 | 1008.5 |
| 20260506124037 | 66 | 81 | 3.5 | 8.7 | 0.00 | 0.11 | 0.11 | 87 | 1008.5 |
| 20260506123535 | 66 | 77 | 5.2 | 10.4 | 0.00 | 0.11 | 0.11 | 87 | 1008.5 |
| 20260506123054 | 66 | 61 | 5.2 | 8.7 | 0.00 | 0.11 | 0.11 | 87 | 1008.4 |
| 20260506122535 | 66 | 91 | 6.1 | 11.3 | 0.00 | 0.11 | 0.11 | 88 | 1008.5 |
| 20260506122036 | 66 | 92 | 6.1 | 10.4 | 0.00 | 0.11 | 0.11 | 87 | 1008.5 |
| 20260506121535 | 66 | 71 | 6.1 | 10.4 | 0.00 | 0.11 | 0.11 | 88 | 1008.6 |
| 20260506121036 | 65 | 99 | 6.1 | 10.4 | 0.00 | 0.11 | 0.11 | 88 | 1008.6 |
| 20260506120535 | 65 | 90 | 10.4 | 13.9 | 0.00 | 0.11 | 0.11 | 87 | 1008.5 |
| 20260506120035 | 65 | 119 | 6.1 | 13.0 | 0.00 | 0.11 | 0.11 | 87 | 1008.5 |
| 20260506115536 | 66 | 87 | 6.1 | 10.4 | 0.00 | 0.11 | 0.11 | 88 | 1008.5 |
| 20260506115035 | 65 | 54 | 5.2 | 11.3 | 0.00 | 0.11 | 0.11 | 87 | 1008.5 |
| 20260506114535 | 66 | 88 | 9.6 | 13.9 | 0.00 | 0.11 | 0.11 | 87 | 1008.5 |
| 20260506114035 | 66 | 70 | 7.8 | 13.9 | 0.00 | 0.11 | 0.11 | 86 | 1008.4 |
| 20260506113035 | 65 | 99 | 8.7 | 14.8 | 0.00 | 0.11 | 0.11 | 87 | 1008.3 |
| 20260506112035 | 65 | 96 | 11.3 | 14.8 | 0.00 | 0.11 | 0.11 | 87 | 1008.5 |
| 20260506111537 | 65 | 110 | 10.4 | 18.2 | 0.00 | 0.11 | 0.11 | 88 | 1008.5 |
| 20260506110536 | 64 | 102 | 7.8 | 13.0 | 0.00 | 0.11 | 0.11 | 90 | 1008.6 |
| 20260506110052 | 64 | 90 | 6.1 | 13.0 | 0.00 | 0.11 | 0.11 | 90 | 1008.6 |
| 20260506105535 | 63 | 73 | 10.4 | 14.8 | 0.00 | 0.11 | 0.11 | 90 | 1008.6 |
| 20260506105036 | 64 | 92 | 8.7 | 13.9 | 0.00 | 0.11 | 0.11 | 89 | 1008.8 |
| 20260506104535 | 64 | 112 | 7.0 | 12.2 | 0.00 | 0.11 | 0.11 | 89 | 1008.8 |
| 20260506104035 | 64 | 88 | 7.8 | 13.0 | 0.00 | 0.11 | 0.11 | 89 | 1008.8 |
| 20260506103536 | 64 | 94 | 8.7 | 13.9 | 0.00 | 0.11 | 0.11 | 91 | 1008.8 |
| 20260506103036 | 63 | 90 | 11.3 | 13.9 | 0.00 | 0.11 | 0.11 | 91 | 1008.9 |
| 20260506102536 | 63 | 84 | 7.8 | 11.3 | 0.00 | 0.11 | 0.11 | 92 | 1008.9 |
| 20260506102035 | 63 | 89 | 8.7 | 12.2 | 0.00 | 0.11 | 0.11 | 91 | 1009.0 |
| 20260506101535 | 63 | 97 | 7.8 | 13.0 | 0.00 | 0.11 | 0.11 | 91 | 1009.0 |
| 20260506100537 | 63 | 80 | 9.6 | 13.9 | 0.00 | 0.11 | 0.11 | 92 | 1008.9 |
| 20260506100035 | 63 | 80 | 9.6 | 13.0 | 0.00 | 0.11 | 0.11 | 92 | 1009.0 |
| 20260506095535 | 62 | 66 | 8.7 | 12.2 | 0.00 | 0.11 | 0.11 | 92 | 1008.9 |
| 20260506095035 | 62 | 68 | 8.7 | 12.2 | 0.00 | 0.11 | 0.11 | 93 | 1008.9 |
| 20260506094035 | 62 | 65 | 6.1 | 8.7 | 0.00 | 0.13 | 0.11 | 94 | 1009.2 |
| 20260506093535 | 62 | 83 | 7.0 | 10.4 | 0.00 | 0.13 | 0.11 | 94 | 1009.2 |
| 20260506093035 | 61 | 71 | 6.1 | 10.4 | 0.00 | 0.13 | 0.11 | 94 | 1009.1 |
| 20260506092535 | 61 | 86 | 7.8 | 13.0 | 0.00 | 0.14 | 0.11 | 94 | 1009.1 |
| 20260506092035 | 61 | 78 | 5.2 | 10.4 | 0.00 | 0.14 | 0.11 | 94 | 1009.2 |
| 20260506091035 | 61 | 71 | 5.2 | 12.2 | 0.00 | 0.15 | 0.11 | 94 | 1009.2 |
| 20260506090535 | 61 | 60 | 7.0 | 10.4 | 0.00 | 0.15 | 0.11 | 95 | 1009.2 |
| 20260506090035 | 61 | 75 | 6.1 | 10.4 | 0.00 | 0.16 | 0.11 | 95 | 1009.2 |
| 20260506085535 | 61 | 63 | 4.3 | 7.0 | 0.00 | 0.17 | 0.11 | 95 | 1009.0 |
| 20260506085035 | 61 | 72 | 5.2 | 7.0 | 0.00 | 0.17 | 0.11 | 95 | 1009.2 |
| 20260506084542 | 61 | 91 | 5.2 | 10.4 | 0.00 | 0.17 | 0.11 | 95 | 1009.2 |
| 20260506084035 | 61 | 75 | 7.0 | 11.3 | 0.00 | 0.18 | 0.11 | 95 | 1009.2 |
| 20260506083537 | 61 | 69 | 6.1 | 8.7 | 0.00 | 0.19 | 0.11 | 96 | 1009.2 |
| 20260506083035 | 61 | 60 | 4.3 | 7.8 | 0.00 | 0.20 | 0.11 | 96 | 1009.2 |
| 20260506082035 | 60 | 92 | 5.2 | 7.0 | 0.00 | 0.20 | 0.11 | 96 | 1009.1 |
| 20260506081534 | 60 | 91 | 5.2 | 10.4 | 0.00 | 0.21 | 0.11 | 97 | 1009.1 |
| 20260506081035 | 60 | 86 | 4.3 | 10.4 | 0.00 | 0.22 | 0.11 | 96 | 1009.2 |
| 20260506080535 | 60 | 94 | 5.2 | 7.8 | 0.00 | 0.22 | 0.11 | 97 | 1009.1 |
| 20260506073034 | 60 | 109 | 7.0 | 10.4 | 0.00 | 0.25 | 0.11 | 98 | 1009.1 |
| 20260506072035 | 60 | 76 | 4.3 | 6.1 | 0.01 | 0.26 | 0.11 | 99 | 1009.1 |
| 20260506071538 | 60 | 110 | 4.3 | 7.0 | 0.01 | 0.26 | 0.11 | 99 | 1009.1 |
| 20260506071035 | 59 | 80 | 2.6 | 8.7 | 0.01 | 0.26 | 0.11 | 99 | 1009.1 |
| 20260506062034 | 58 | 78 | 5.2 | 8.7 | 0.02 | 0.26 | 0.10 | 99 | 1009.3 |
| 20260506061035 | 58 | 53 | 2.6 | 4.3 | 0.02 | 0.26 | 0.10 | 99 | 1009.6 |
| 20260506060535 | 58 | 42 | 2.6 | 6.1 | 0.03 | 0.26 | 0.10 | 99 | 1009.4 |
| 20260506051034 | 57 | 110 | 4.3 | 7.0 | 0.05 | 0.24 | 0.08 | 98 | 1009.8 |
| 20260506050536 | 57 | 99 | 6.1 | 10.4 | 0.04 | 0.23 | 0.07 | 98 | 1009.8 |